Regional Weather Roundup
Issued by NWS

Home | Current Version | Previous Version | Graphics & Text | Print | Product List | Glossary On
Versions: 1 2 3 4 5 6 7 8 9 10 11 12 13 14 15 16 17 18 19 20 21 22 23 24 25 26 27 28 29 30 31 32 33 34 35 36 37 38 39 40 41 42 43 44 45 46 47 48 49 50
000
ASUS45 KBOU 010307
RWRCO

WEATHER ROUNDUP FOR COLORADO
NATIONAL WEATHER SERVICE DENVER/BOULDER CO
900 PM MDT TUE MAR 31 2015

NOTE: "FAIR" INDICATES FEW OR NO CLOUDS BELOW 12000 FEET WITH NO
SIGNIFICANT WEATHER AND/OR OBSTRUCTIONS TO VISIBILITY.

COZ001>005-013-030-031-010400-
...NORTHWEST COLORADO...

CITY           SKY/WX    TMP DP  RH WIND       PRES   REMARKS
CRAIG          CLOUDY    56  22  26 S7        29.88S
HAYDEN         CLOUDY    54  16  22 SW5       29.91S
MEEKER         MOCLDY    51  23  33 NE5       29.90S
MOUNT WERNER   NOT AVBL
STEAMBOAT SPGS CLOUDY    54  21  27 NE5       29.92F
WALDEN         MOCLDY    50  18  27 SW7       29.98S
$$

COZ006>008-011-010400-
...WEST CENTRAL VALLEYS...

CITY           SKY/WX    TMP DP  RH WIND       PRES   REMARKS
GRAND JUNCTION CLOUDY    66  14  13 SW7       29.83R
MONTROSE       MOCLDY    58  17  20 S10       29.94S
EAGLE          MOCLDY    63  19  19 S7        29.95S
RIFLE          CLOUDY    62  22  21 NW3       29.87R
DELTA          MOCLDY    65  15  14 W3        29.88R
NUCLA          MOCLDY    61  14  16 S7        29.97S
$$

COZ017>023-064>068-010400-
...SOUTHWEST COLORADO...

CITY           SKY/WX    TMP DP  RH WIND       PRES   REMARKS
DURANGO        CLEAR     50  19  29 CALM      30.00S
CORTEZ         PTCLDY    51  23  33 E5        29.96R
PAGOSA SPRINGS CLEAR     51  22  33 CALM      30.07S
TELLURIDE      NOT AVBL
WOLF CREEK PAS PTCLDY    34  16  47 SW13G20   30.30S WCI  25
$$

COZ009-010-012-014-032>034-037-058>063-010400-
...CENTRAL COLORADO...

CITY           SKY/WX    TMP DP  RH WIND       PRES   REMARKS
ASPEN          MOCLDY    49  23  36 S8        30.01S
BUENA VISTA    PTCLDY    50  20  30 CALM      30.05S
COPPER MTN     PTCLDY    37  18  44 S12       30.24S
BERTHOUD PASS  FAIR      32  27  80 W7        30.26S WCI  26
COTTONWOOD PAS PTCLDY    50  12  22 W6        30.14F
GUNNISON       PTCLDY    48  21  34 N7        30.08R
KREMMLING      MOCLDY    50  18  27 SW5       29.99S
LEADVILLE      NOT AVBL
SALIDA         PTCLDY    51  21  30 SW7       30.11S
SUNLIGHT       MOCLDY    41  23  48 CALM      30.18S
WILKERSON PASS PTCLDY    37  18  44 SW7       30.22F
$$

COZ069>075-010400-
...SAN LUIS VALLEY/SANGRE DE CRISTO MOUNTAINS...

CITY           SKY/WX    TMP DP  RH WIND       PRES   REMARKS
ALAMOSA        PTCLDY    48  19  31 CALM      30.04F
LA VETA PASS   PTCLDY    43  16  33 S5        30.18S
SAGUACHE       PTCLDY    48  18  29 N3        30.07R
$$

COZ035-036-038>040-010400-
...NORTHERN COLORADO FRONT RANGE...

CITY           SKY/WX    TMP DP  RH WIND       PRES   REMARKS
DENVER INTL AP PTCLDY    59  25  27 S10       29.83F
DMNS CITY PARK   N/A     63  26  24 S3        29.83S
AURORA         MOCLDY    59  22  23 S10       29.86S
FRONT RANGE AP MOCLDY    55  30  38 S10       29.85S
ERIE MUNI ARPT MOCLDY    60  21  22 SW3       29.82S
BOULDER MUN AP MOCLDY    66  19  16 CALM      29.83S
CENTENNIAL     MOCLDY    60  20  21 S10       29.86S
BROOMFIELD     MOCLDY    66  18  15 W8        29.86
FORT COLLINS   MOCLDY    64  23  20 S3        29.82S
LONGMONT       MOCLDY    59  28  31 CALM      29.84R
$$

COZ041-046-047-076>085-087-088-010400-
...PIKES PEAK/PALMER DIVIDE AND SOUTHERN FOOTHILLS...

CITY           SKY/WX    TMP DP  RH WIND       PRES   REMARKS
COLO. SPRINGS  PTCLDY    58  18  21 S9G21     29.94R
A. F. ACADEMY  MOCLDY    61  16  17 S9        29.95R
ELLICOTT       PTCLDY   N/A N/A N/A S14       29.93R
FALCON         PTCLDY    55  17  22 S9        29.98S
FORT CARSON    PTCLDY    61  21  21 W7        29.91R
LIMON          CLEAR     47  21  35 CALM      29.90R
MONUMENT HILL  MOCLDY    54  19  26 S17       29.95S
TRINIDAD       PTCLDY    61  18  18 S9        29.94S
$$

COZ042>045-048>051-090-091-010400-
...NORTHEAST COLORADO...

CITY           SKY/WX    TMP DP  RH WIND       PRES   REMARKS
GREELEY ARPT   PTCLDY    57  19  23 CALM      29.79R
AKRON          CLEAR     62  18  18 S15       29.83S
BURLINGTON     CLEAR     60  22  23 S16       29.87S
WRAY           CLEAR     64  18  17 S8        29.81S
STERLING       CLEAR     55  23  28 S6        29.79S
HOLYOKE        NOT AVBL
FORT MORGAN    CLEAR     60 -31   2 SE6       29.81S
$$

COZ086-089-092>099-010400-
...SOUTHEAST COLORADO...

CITY           SKY/WX    TMP DP  RH WIND       PRES   REMARKS
PUEBLO         PTCLDY    61  19  19 E5        29.84S
LA JUNTA       CLEAR     65  23  20 S10       29.85R
LAMAR          CLEAR     62  27  26 S14       29.83R
SPRINGFIELD      N/A     55  30  38 SE13      29.90S
$$


USA.gov is the U.S. government's official web portal to all federal, state and local government web resources and services.